Location: Dziadowski
(50.3833°N, 20.0333°E)
Time: 05:59:42
(UTC+00:00)

CZ-4C R/B - Pass Details

Date: 18 January 2026
Orbit: 482 x 1496 km, 63.4° (Epoch: 17 February)

Event Time Altitude Azimuth Distance (km) Brightness Sun altitude
Exits shadow 02:30:23 22° 19° (NNE) 1,940 4.3 -37.8°
Drops below altitude 10° 02:34:17 10° 51° (NE) 2,901 5.6 -37.2°
Sets 02:37:55 0° 64° (ENE) 4,055 6.7 -36.6°
